Dan Fighter — OVUE2 — position and weather

sailwx.info

Track history (hours):
 
Tides and Currents Weather Stations Pressure Air Temp Water Temp Dewpoint Dewpoint Depression Visibility Wind Speed Wind Dir Waves Ship Positions

Dan Fighter

Last reported at 2014-Jul-28 04:31 UTC. Time now 2014-Jul-31 03:27 UTC.
Position N 35°59' W 005°21'.

Length 64 m; draft 3.1 m.

Type: Cargo ship. MMSI: 220386978.

Date/timePositionNaut miles runAvg speedWind from/ knotsBaromVisibWave heightAir tempDewpointWater temp
2014-Jul-28 04:31N 35°59' W 005°21'257 7.2
2014-Jul-26 17:05N 38°11' W 009°57'25 8.4
2014-Jul-26 14:08N 38°35' W 010°05'5 8.3
2014-Jul-26 13:29N 38°40' W 010°06'  
2014-Jul-23 19:33N 43°37' W 003°51'9 8.8
2014-Jul-23 18:33N 43°36' W 003°39'9 8.7
2014-Jul-23 17:33N 43°34' W 003°27'9 8.6
2014-Jul-23 16:33N 43°30' W 003°17'8 8.4
2014-Jul-23 15:33N 43°25' W 003°08'6 6.0
2014-Jul-23 14:33N 43°20' W 003°02'0 0.0
2014-Jul-23 13:32N 43°20' W 003°02'0 0.0
2014-Jul-23 12:20N 43°20' W 003°02'  
Track history (hours):
 
Tides and Currents Weather Stations Pressure Air Temp Water Temp Dewpoint Dewpoint Depression Visibility Wind Speed Wind Dir Waves Ship Positions

Dan Fighter

Last reported at 2014-Jul-28 04:31 UTC. Time now 2014-Jul-31 03:27 UTC.
Position N 35°59' W 005°21'.

Length 64 m; draft 3.1 m.

Type: Cargo ship. MMSI: 220386978.

Date/timePositionNaut miles runAvg speedWind from/ knotsBaromVisibWave heightAir tempDewpointWater temp
2014-Jul-28 04:31N 35°59' W 005°21'257 7.2
2014-Jul-26 17:05N 38°11' W 009°57'25 8.4
2014-Jul-26 14:08N 38°35' W 010°05'5 8.3
2014-Jul-26 13:29N 38°40' W 010°06'  
2014-Jul-23 19:33N 43°37' W 003°51'9 8.8
2014-Jul-23 18:33N 43°36' W 003°39'9 8.7
2014-Jul-23 17:33N 43°34' W 003°27'9 8.6
2014-Jul-23 16:33N 43°30' W 003°17'8 8.4
2014-Jul-23 15:33N 43°25' W 003°08'6 6.0
2014-Jul-23 14:33N 43°20' W 003°02'0 0.0
2014-Jul-23 13:32N 43°20' W 003°02'0 0.0
2014-Jul-23 12:20N 43°20' W 003°02'  

Dump ship's entire track history